Location: Newark
(25.6108°S, 54.5803°W)
Time: 05:38:07
(UTC+00:00)

deb Explorer IX - Pass Details

Date: 29 October 2020
Orbit: 538 x 1104 km, 38.8° (Epoch: 29 November)

Event Time Altitude Azimuth Distance (km) Brightness Sun altitude
Rises 19:02:44 0° 303° (WNW) 3,653 ? 37.1°
Reaches altitude 10° 19:05:32 10° 303° (WNW) 2,627 ? 36.5°
Maximum altitude 19:11:49 90° 209° (SSW) 829 ? 35.0°
Drops below altitude 10° 19:17:07 10° 122° (ESE) 2,237 ? 33.9°
Sets 19:19:22 0° 121° (ESE) 3,078 ? 33.3°
